Location: *
(40.7873°S, 98.7174°E)
Time: 10:55:43
(UTC+00:00)

Kosmos-1816 - Pass Details

Date: 26 June 2024
Orbit: 959 x 1007 km, 82.9° (Epoch: 23 July)

Event Time Altitude Azimuth Distance (km) Brightness Sun altitude
Rises 22:47:58 0° 53° (NE) 3,725 10.1 -22.3°
Reaches altitude 10° 22:52:25 10° 82° (E) 2,794 9.6 -21.5°
Maximum altitude 22:54:37 12° 102° (ESE) 2,659 9.2 -21.1°
Drops below altitude 10° 22:56:50 10° 123° (ESE) 2,809 9.0 -20.7°
Sets 23:01:18 0° 151° (SSE) 3,771 9.3 -19.9°
